Weather History for KMXF - November, 2013

Change the Weather History Date:

Saturday, November 16, 2013

  Actual Average Record
Temperature  
Mean Temperature 60 °F -  
Max Temperature 66 °F 66 °F 82 °F (1998)
Min Temperature 55 °F 46 °F 32 °F (1997)
Degree Days  
Heating Degree Days 4    
Growing Degree Days 10 (Base 50)    
Moisture  
Dew Point 58 °F    
Average Humidity 94    
Maximum Humidity 100    
Minimum Humidity 81    
Precipitation  
Precipitation 0.01 in - - ()
Sea Level Pressure  
Sea Level Pressure 30.12 in    
Wind  
Wind Speed 5 mph (East)    
Max Wind Speed 9 mph    
Max Gust Speed -    
Visibility 8 miles    
Events      
Averages and records for this station are not official NWS values.
T = Trace of Precipitation, MM = Missing Value Source: NWS Daily Summary

Daily Weather History Graph

Daily Weather History Graph

Search for Another Location

Airport or City:

Trip Planner

Search our weather history database for the weather conditions in past years. The results will help you decide how hot, cold, wet, or windy it might be!

Date:

Astronomy

Nov. 16, 2013 Rise Set
Actual Time 6:15 AM CST 4:44 PM CST
Civil Twilight 5:49 AM CST 5:10 PM CST
Nautical Twilight 5:20 AM CST 5:40 PM CST
Astronomical Twilight 4:51 AM CST 6:09 PM CST
Moon 4:17 PM CST (11/16) 5:14 AM CST (11/16)
Length of Visible Light 11h 20m
Length of Day
10h 28m
Waxing Gibbous, 99% of the Moon is Illuminated
Nov 16
Waxing Gibbous
Nov 17
Full
Nov 25
Last Quarter
Dec 2
New
Dec 9
First Quarter

Hourly Weather History & Observations

Time (CST) Temp. Dew Point Humidity Pressure Visibility Wind Dir Wind Speed Gust Speed Precip Events Conditions
12:58 AM 58.1 °F 57.6 °F 98% 30.13 in 10.0 mi ENE 4.6 mph - N/A   Overcast
1:58 AM 58.1 °F 57.2 °F 97% 30.13 in 10.0 mi ENE 2.3 mph - N/A   Overcast
2:48 AM 57.2 °F 55.4 °F 94% 30.11 in 10.0 mi ENE 4.6 mph - N/A   Scattered Clouds
2:58 AM 56.8 °F 55.9 °F 97% 30.12 in 10.0 mi ENE 3.5 mph - N/A   Partly Cloudy
3:58 AM 56.5 °F 55.6 °F 97% 30.12 in 10.0 mi East 3.5 mph - N/A   Clear
4:33 AM 55.4 °F 55.4 °F 100% 30.11 in 6.0 mi ESE 3.5 mph - N/A   Mostly Cloudy
4:48 AM 55.4 °F 55.4 °F 100% 30.11 in 10.0 mi East 3.5 mph - N/A   Scattered Clouds
4:58 AM 55.9 °F 55.2 °F 97% 30.12 in 10.0 mi East 3.5 mph - N/A   Partly Cloudy
5:13 AM 55.4 °F 55.4 °F 100% 30.12 in 10.0 mi ESE 4.6 mph - N/A   Mostly Cloudy
5:38 AM 55.4 °F 55.4 °F 100% 30.12 in 10.0 mi ESE 2.3 mph - N/A   Mostly Cloudy
5:43 AM 55.4 °F 55.4 °F 100% 30.12 in 10.0 mi East 3.5 mph - N/A   Mostly Cloudy
5:58 AM 55.6 °F 55.0 °F 98% 30.14 in 10.0 mi East 2.3 mph - N/A   Mostly Cloudy
6:03 AM 55.4 °F 55.4 °F 100% 30.13 in 10.0 mi East 2.3 mph - N/A   Mostly Cloudy
6:23 AM 55.4 °F 55.4 °F 100% 30.13 in 7.0 mi ENE 4.6 mph - N/A   Overcast
6:33 AM 55.4 °F 55.4 °F 100% 30.13 in 9.0 mi ENE 2.3 mph - N/A   Overcast
6:58 AM 56.5 °F 56.3 °F 99% 30.15 in 4.0 mi ESE 4.6 mph - N/A   Overcast
7:03 AM 57.2 °F 57.2 °F 100% 30.14 in 2.5 mi ESE 5.8 mph - N/A   Overcast
7:23 AM 57.2 °F 57.2 °F 100% 30.14 in 3.0 mi ESE 6.9 mph - N/A   Overcast
7:43 AM 57.2 °F 57.2 °F 100% 30.16 in 3.0 mi SE 6.9 mph - N/A   Overcast
7:53 AM 57.2 °F 57.2 °F 100% 30.15 in 2.5 mi East 8.1 mph - N/A   Overcast
7:58 AM 56.7 °F 56.5 °F 99% 30.17 in 2.5 mi East 8.1 mph - N/A   Overcast
8:38 AM 57.2 °F 57.2 °F 100% 30.16 in 3.0 mi East 4.6 mph - N/A   Overcast
8:58 AM 57.9 °F 57.6 °F 99% 30.18 in 4.0 mi East 4.6 mph - N/A   Overcast
9:08 AM 57.2 °F 57.2 °F 100% 30.17 in 4.0 mi ESE 4.6 mph - N/A   Overcast
9:58 AM 59.0 °F 58.6 °F 99% 30.18 in 6.0 mi East 4.6 mph - N/A   Overcast
10:33 AM 59.0 °F 59.0 °F 100% 30.16 in 7.0 mi East 5.8 mph - N/A   Overcast
10:58 AM 60.1 °F 59.5 °F 98% 30.16 in 8.0 mi East 6.9 mph - 0.01 in   Overcast
11:23 AM 60.8 °F 60.8 °F 100% 30.14 in 10.0 mi East 6.9 mph - N/A   Overcast
11:48 AM 60.8 °F 59.0 °F 94% 30.13 in 10.0 mi East 5.8 mph - N/A   Overcast
11:58 AM 62.1 °F 59.9 °F 93% 30.14 in 10.0 mi East 6.9 mph - N/A   Overcast
12:43 PM 62.6 °F 59.0 °F 88% 30.11 in 10.0 mi ENE 6.9 mph - N/A   Overcast
12:58 PM 63.0 °F 59.5 °F 89% 30.11 in 10.0 mi East 6.9 mph - N/A   Overcast
1:33 PM 64.4 °F 60.8 °F 88% 30.09 in 10.0 mi East 6.9 mph - N/A   Overcast
1:58 PM 65.3 °F 60.1 °F 83% 30.10 in 10.0 mi East 6.9 mph - N/A   Overcast
2:38 PM 66.2 °F 60.8 °F 83% 30.08 in 10.0 mi East 5.8 mph - N/A   Mostly Cloudy
2:58 PM 66.2 °F 60.4 °F 82% 30.08 in 10.0 mi ENE 9.2 mph - N/A   Clear
3:58 PM 65.8 °F 60.4 °F 83% 30.07 in 10.0 mi ENE 5.8 mph - N/A   Overcast
4:58 PM 64.8 °F 60.6 °F 86% 30.07 in 10.0 mi ENE 4.6 mph - N/A   Overcast
5:58 PM 64.4 °F 60.8 °F 88% 30.09 in 10.0 mi NNE 3.5 mph - N/A   Overcast
6:58 PM 64.0 °F 61.2 °F 90% 30.10 in 10.0 mi ENE 4.6 mph - N/A   Overcast
7:58 PM 64.0 °F 61.2 °F 90% 30.09 in 10.0 mi ENE 4.6 mph - N/A   Overcast
8:58 PM 66.7 °F 60.8 °F 81% 30.10 in 10.0 mi East 5.8 mph - N/A   Overcast
9:58 PM 66.0 °F 60.6 °F 83% 30.10 in 10.0 mi East 5.8 mph - N/A   Overcast
10:58 PM 66.2 °F 60.3 °F 81% 30.09 in 10.0 mi East 6.9 mph - N/A   Overcast
11:58 PM 66.0 °F 60.4 °F 82% 30.09 in 10.0 mi ESE 6.9 mph - N/A   Overcast